{"data":{"norad_id":66546,"intl_designator":"2025-266B","name":"SHIJIAN-30B (SJ-30B)","alt_names":[],"object_type":"PAYLOAD","status":"ACTIVE","operator":null,"country":"PRC","launch_date":"2025-11-19","launch_site_code":"JSC","launch_vehicle":null,"mission":null,"orbit_class":"UNKNOWN","rcs_meters":null,"size_class":null,"mass_kg":null,"dimensions":null,"purposes":[],"wikipedia_slug":null,"has_3d_model":false,"image_url":null,"decayed_at":null,"tle_current":{"epoch":"2026-09-20T22:05:06.069696Z","epoch_age_seconds":87911,"freshness":"FRESH","line1":"1 66546U 25266B   26263.92020914  .00004958  00000+0  27385-3 0  9997","line2":"2 66546  51.7949  90.8753 0006226 204.9856 155.0820 15.15577689 46371","mean_motion":15.15577689,"eccentricity":0.0006226,"inclination_deg":51.7949,"raan_deg":90.8753,"arg_perigee_deg":204.9856,"mean_anomaly_deg":155.082,"bstar":0.00027385,"rev_number":4637,"period_min":95.013275165731,"perigee_km":514.93100499576,"apogee_km":523.51960053516,"semimajor_km":6897.3623027655,"source":"CELESTRAK","updated_at":"2026-09-21T09:00:16.047263Z"}}}